Powrót do katalogu

TELSTAR 19V

AktywnyŁącznośćGEO
NORAD 43562·PAYLOAD·🇨🇦 Canada

Wystrzelony Jul 22, 2018 z Cape Canaveral Space Force Station

Loading…

TLE

ŚwieżeSource: CelesTrak SupGP

Epoka: Sep 14, 2026, 06:00 UTC

1 43562C 18059A   26257.25000000 -.00000190  00000+0  00000+0 0  2578
2 43562   0.0117 201.5131 0002648 328.4898 210.2405  1.00271123    18

Śledź TELSTAR 19V w czasie rzeczywistym z AllMySat

Download on the App Store